DELTA 1 DEB, 10845

Orbit data source: Space-Track

DELTA 1 DEB, 10845 is space debris in SSO originally from a launch on Thu, 29 Jul 1976 UTC launched from the Air Force Western Test Range (AFWTR). Debris objects in space refer to the collection of defunct objects orbiting the Earth. Examples of debris include non-operational satellites, rocket bodies, and fragments generated from explosions, collisions, or faulty payload assembly.

Loading next visibility...
Identifier
10845, 1976-077CR
Orbit
SSO
Country
Flag of USUS
Related business
Manufacturer
Unknown
Mission
Spacecraft
Bus & Motor
Unknown
Mass
Unknown
Launch date (UTC)
1976-07-29 (50 years ago)
Launch vehicle
Unknown
Launch site
Air Force Western Test Range (AFWTR)
Object type
Payload
Rocket body
Debris
Shape & HBR
Unknown shape, 0.1 m
Radar Cross Section
Medium (>0.1 m² and <1 m²)

Expand to show TLE details & history
Last TLE update: 3 days ago

TLE from 3 days ago
0 DELTA 1 DEB
1 10845U 76077CR  26171.25538625  .00000068  00000-0  11518-2 0  9990
2 10845 102.3424 272.2281 0177493 204.5356 180.4845 12.10176204203836
Epoch: 2026-06-20T06:07Z
TLE epoch observation values (Epoch: 2026-06-20T06:07:45.371Z)
Latitude
24.41195°
Longitude
-93.85613°
Altitude
1,780.457 km
Speed
6.931 km/s
True Right ascension
17h 46m 13s
True Declination
24° 17' 56"
Sunlit
Object was in full shadow at epoch
Visualization orbit readout
Latitude
Unknown
Longitude
Unknown
Altitude
Unknown
Speed
Unknown
Apparent Right ascension
Unknown
Apparent Declination
Unknown
Sunlit
N/A
Visualization observer readout
Local Sidereal Time
13:16:44
Azimuth
Unknown
Elevation
Unknown
Doppler factor
Unknown
Orbital elements
Apogee altitude
1,775.448 km
Perigee altitude
1,491.055 km
Semi-major axis
8,011.389 km
Eccentricity
0.01775
Inclination
102.3424°
RAAN
272.2281°
Arg. of periapsis
204.5356°
True anomaly
180.46767°
Mean anomaly
180.4845°
Eccentric anomaly
180.47605°
Mean motion
3.02678 °/min
Orbital period
118.94 mins
BSTAR
0.0011518
Loading maneuver chart data...
Computing Atmospheric mass density...
Loading historical data...
Loading historical data...
Loading historical data...
Loading historical data...
Loading historical data...
Loading historical data...
Loading historical data...

Documentation

Showing up to 5 results
|